Kirksville, MO

10:05 PM CDT on April 19, 2018 (GMT -0500)
Kirksville Regional

Weather History for KIRK - November, 2011

Change the Weather History Date:

Tuesday, November 22, 2011

  Actual Average Record
Temperature  
Mean Temperature 41 °F 37 °F  
Max Temperature 43 °F 47 °F 71 °F (2010)
Min Temperature 38 °F 28 °F -1 °F (1937)
Degree Days  
Heating Degree Days 24 28  
Month to date heating degree days 436 497  
Since 1 July heating degree days 910 986  
Cooling Degree Days 0 0  
Month to date cooling degree days 0 0  
Year to date cooling degree days 1197 939  
Moisture  
Dew Point 40 °F    
Average Humidity 95    
Maximum Humidity 100    
Minimum Humidity 89    
Precipitation  
Precipitation 0.16 in 0.06 in 1.40 in (1963)
Month to date precipitation 4.65 2.09  
Year to date precipitation 34.08 36.93  
Sea Level Pressure  
Sea Level Pressure 30.03 in    
Wind  
Wind Speed 8 mph (North)    
Max Wind Speed 14 mph    
Max Gust Speed 17 mph    
Visibility 2 miles    
Events Fog , Rain    
T = Trace of Precipitation, MM = Missing Value Source: NWS Daily Summary

Daily Weather History Graph

Daily Weather History Graph

Search for Another Location

Airport or City:

Astronomy

Nov. 22, 2011 Rise Set
Actual Time 7:03 AM CST 4:48 PM CST
Civil Twilight 6:33 AM CST 5:18 PM CST
Nautical Twilight 6:00 AM CST 5:51 PM CST
Astronomical Twilight 5:28 AM CST 6:23 PM CST
Moon 3:54 AM CST (11/22) 2:48 PM CST (11/22)
Length of Visible Light 10h 44m
Length of Day
9h 45m
Waning Crescent, 9% of the Moon is Illuminated
Nov 22
Waning Crescent
Nov 25
New
Dec 2
First Quarter
Dec 10
Full
Dec 17
Last Quarter

Hourly Weather History & Observations

Time (CST) Temp. Windchill Dew Point Humidity Pressure Visibility Wind Dir Wind Speed Gust Speed Precip Events Conditions
12:55 AM 42.1 °F 38.4 °F 39.9 °F 92% 30.10 in 3.0 mi NNE 5.8 mph - N/A   Overcast
1:55 AM 42.1 °F 39.2 °F 39.9 °F 92% 30.06 in 3.0 mi ENE 4.6 mph - N/A   Overcast
2:32 AM 42.8 °F 39.3 °F 39.2 °F 87% 30.03 in 2.5 mi ENE 5.8 mph - N/A   Overcast
2:55 AM 42.1 °F 37.7 °F 39.9 °F 92% 30.05 in 2.5 mi NE 6.9 mph - N/A   Overcast
3:17 AM 42.8 °F 38.0 °F 41.0 °F 93% 30.01 in 2.0 mi NNE 8.1 mph - N/A   Overcast
3:24 AM 42.8 °F 37.5 °F 41.0 °F 93% 30.01 in 1.5 mi NNE 9.2 mph - N/A   Overcast
3:34 AM 42.8 °F 38.0 °F 41.0 °F 93% 30.00 in 0.5 mi NE 8.1 mph - N/A Fog Fog
3:55 AM 42.1 °F 37.7 °F 41.0 °F 96% 30.02 in 0.2 mi NE 6.9 mph - N/A Fog Fog
4:51 AM 42.8 °F 38.6 °F 42.8 °F 100% 30.01 in 0.8 mi North 6.9 mph - 0.01 in Rain Light Rain
4:55 AM 42.1 °F 38.4 °F 42.1 °F 100% 30.04 in 0.8 mi North 5.8 mph - 0.01 in Rain Light Rain
5:03 AM 42.8 °F 38.6 °F 42.8 °F 100% 30.01 in 1.0 mi North 6.9 mph - 0.01 in Rain Light Rain
5:42 AM 42.8 °F 37.5 °F 42.8 °F 100% 30.00 in 1.8 mi NNE 9.2 mph - 0.02 in Rain Light Rain
5:55 AM 41.0 °F 35.2 °F 41.0 °F 100% 30.02 in 2.0 mi NE 9.2 mph - 0.03 in Rain Light Rain
6:30 AM 42.8 °F 37.5 °F 41.0 °F 93% 30.00 in 1.8 mi NNE 9.2 mph - N/A Rain Light Rain
6:46 AM 42.8 °F 36.6 °F 41.0 °F 93% 30.01 in 2.0 mi NNE 11.5 mph - 0.02 in Rain Light Rain
6:55 AM 41.0 °F 35.8 °F 41.0 °F 100% 30.03 in 2.0 mi NNE 8.1 mph - 0.03 in Rain Light Rain
7:03 AM 41.0 °F 34.7 °F 41.0 °F 100% 30.00 in 1.8 mi NNE 10.4 mph - 0.01 in Rain Light Rain
7:10 AM 41.0 °F 34.7 °F 41.0 °F 100% 30.00 in 2.0 mi NNE 10.4 mph - 0.01 in Rain Light Rain
7:27 AM 41.0 °F 34.3 °F 41.0 °F 100% 29.99 in 1.2 mi NNE 11.5 mph - 0.03 in Rain Light Rain
7:55 AM 41.0 °F 34.7 °F 41.0 °F 100% 30.02 in 1.2 mi North 10.4 mph - 0.05 in Rain Light Rain
8:55 AM 41.0 °F 34.7 °F 41.0 °F 100% 29.98 in 1.5 mi NNE 10.4 mph - N/A Rain Light Rain
9:55 AM 42.1 °F 36.6 °F 41.0 °F 96% 30.00 in 2.0 mi North 9.2 mph - 0.01 in Rain Light Rain
10:55 AM 42.1 °F 36.1 °F 41.0 °F 96% 29.99 in 2.0 mi North 10.4 mph - 0.00 in   Overcast
11:00 AM 42.8 °F 37.5 °F 41.0 °F 93% 29.96 in 1.8 mi North 9.2 mph - N/A   Overcast
11:10 AM 42.8 °F 37.5 °F 41.0 °F 93% 29.96 in 2.0 mi North 9.2 mph - N/A   Overcast
11:17 AM 42.8 °F 37.5 °F 41.0 °F 93% 29.96 in 1.8 mi North 9.2 mph - N/A   Overcast
11:55 AM 42.1 °F 36.1 °F 41.0 °F 96% 29.97 in 2.0 mi North 10.4 mph - N/A   Overcast
12:03 PM 42.8 °F 36.6 °F 41.0 °F 93% 29.94 in 1.8 mi NNW 11.5 mph - N/A   Overcast
12:14 PM 42.8 °F 36.6 °F 41.0 °F 93% 29.95 in 2.0 mi North 11.5 mph - N/A   Overcast
12:30 PM 42.8 °F 37.5 °F 41.0 °F 93% 29.94 in 1.8 mi NNW 9.2 mph - N/A   Overcast
12:55 PM 42.1 °F 36.6 °F 39.9 °F 92% 29.97 in 1.8 mi NNW 9.2 mph - N/A   Overcast
1:27 PM 42.8 °F 37.5 °F 39.2 °F 87% 29.95 in 2.0 mi NNW 9.2 mph - N/A   Overcast
1:55 PM 42.1 °F 37.1 °F 39.9 °F 92% 29.98 in 2.0 mi NNW 8.1 mph - N/A   Overcast
2:55 PM 42.1 °F 37.1 °F 39.9 °F 92% 29.98 in 2.0 mi NNW 8.1 mph - N/A   Overcast
3:45 PM 42.8 °F 38.0 °F 39.2 °F 87% 29.99 in 3.0 mi NW 8.1 mph - N/A   Overcast
3:55 PM 42.1 °F 38.4 °F 39.9 °F 92% 30.02 in 3.0 mi NNW 5.8 mph - N/A   Overcast
4:55 PM 42.1 °F 38.4 °F 39.9 °F 92% 30.05 in 6.0 mi NNW 5.8 mph - N/A   Overcast
5:55 PM 41.0 °F 36.4 °F 39.9 °F 96% 30.07 in 7.0 mi NW 6.9 mph - N/A   Overcast
6:45 PM 41.0 °F 36.4 °F 39.2 °F 93% 30.06 in 2.5 mi NW 6.9 mph - N/A   Overcast
6:55 PM 41.0 °F 36.4 °F 39.9 °F 96% 30.09 in 2.0 mi NW 6.9 mph - N/A   Overcast
7:08 PM 41.0 °F 37.1 °F 39.2 °F 93% 30.07 in 2.5 mi NW 5.8 mph - N/A   Overcast
7:55 PM 41.0 °F 35.8 °F 39.9 °F 96% 30.11 in 4.0 mi NW 8.1 mph - N/A   Overcast
8:03 PM 41.0 °F 35.2 °F 39.2 °F 93% 30.09 in 4.0 mi NNW 9.2 mph - N/A   Overcast
8:55 PM 41.0 °F 38.0 °F 39.9 °F 96% 30.13 in 3.0 mi WNW 4.6 mph - N/A   Overcast
9:55 PM 41.0 °F 37.1 °F 39.9 °F 96% 30.15 in 3.0 mi WNW 5.8 mph - N/A   Overcast
10:14 PM 41.0 °F 38.0 °F 39.2 °F 93% 30.13 in 4.0 mi NW 4.6 mph - N/A   Overcast
10:43 PM 41.0 °F 38.0 °F 39.2 °F 93% 30.13 in 4.0 mi WNW 4.6 mph - N/A   Overcast
10:55 PM 41.0 °F 37.1 °F 39.9 °F 96% 30.16 in 4.0 mi WNW 5.8 mph - N/A   Overcast
11:39 PM 39.2 °F 35.9 °F 37.4 °F 93% 30.15 in 4.0 mi West 4.6 mph - N/A   Mostly Cloudy
11:55 PM 39.9 °F 37.8 °F 37.9 °F 93% 30.18 in 3.0 mi West 3.5 mph - N/A   Mostly Cloudy